Location: ?????oe
(44.4874°N, 135.7046°E)
Time: 23:19:22
(UTC+00:00)

Cosmos 2221 - Pass Details

Date: 13 December 2025
Orbit: 569 x 590 km, 82.5° (Epoch: 19 January)

Event Time Altitude Azimuth Distance (km) Brightness Sun altitude
Exits shadow 21:50:04 - 336° (NNW) 2,676 5.4 -6.4°
Reaches altitude 10° 21:52:19 10° 323° (NW) 1,879 4.5 -6.0°
Maximum altitude 21:55:32 22° 272° (W) 1,263 3.7 -5.5°
Drops below altitude 10° 21:58:44 10° 221° (SW) 1,868 4.9 -5.0°
Sets 22:01:15 0° 206° (SSW) 2,761 5.9 -4.6°
